Location: Bois de la Silve
(44.4667°N, 6.7833°E)
Time: 08:52:04
(UTC+00:00)

Cosmos 1441 Rocket - Pass Details

Date: 14 July 2020
Orbit: 495 x 541 km, 81.1° (Epoch: 14 August)

Event Time Altitude Azimuth Distance (km) Brightness Sun altitude
Exits shadow 00:10:20 52° 295° (WNW) 673 3.7 -23.5°
Drops below altitude 10° 00:14:02 10° 1° (N) 1,798 7.0 -23.4°
Sets 00:16:13 0° 6° (N) 2,687 8.3 -23.3°
